Theta_e
312 314 313 312 313 313 314 316 318 319 319 321 324 326 326 326 326 324 321 318 317 324 330 328 326 324 323 324 322 319 318 320 321 321 321 321 321 320 320 321 322 322 322 322 322 322 322 322 324 324 325 326 326 325 321 319 318 319 321 322 322 323 322 321 320 319 318 317 316 317 320 324 322 319 319 320 322 322 323 324 324 324 323 323 321 322 323 325
311 312 313 312 312 313 313 314 316 318 318 319 321 324 325 326 327 325 324 320 319 325 329 327 323 320 319 320 319 319 319 321 321 320 320 320 321 321 320 320 322 322 322 323 322 323 323 324 326 327 327 326 326 325 322 320 318 319 322 322 323 323 320 319 318 318 317 316 315 315 317 322 322 320 319 321 323 323 324 325 325 326 325 323 322 323 322 325
310 311 312 313 311 311 313 312 314 316 317 318 318 321 325 327 327 326 325 322 321 324 328 327 323 319 317 318 319 320 320 321 320 320 319 320 321 322 322 320 321 322 323 323 324 325 325 326 328 328 328 327 326 324 321 319 319 318 320 323 324 321 318 316 317 316 315 315 315 315 315 319 322 320 320 321 322 323 324 325 326 327 327 324 322 322 323 325
310 310 311 312 311 310 311 312 312 314 316 317 316 318 323 327 327 327 325 323 321 323 326 327 325 321 318 316 319 319 318 319 319 319 320 319 320 322 323 322 320 321 323 324 325 326 326 327 328 327 327 327 326 324 322 320 320 319 319 324 322 319 318 316 314 314 313 313 314 314 314 317 319 318 320 321 322 323 323 324 324 325 325 323 323 322 322 324
310 310 311 311 311 310 310 311 311 312 314 316 316 317 321 325 327 327 327 324 322 321 323 325 325 323 320 318 318 318 317 319 320 320 322 320 319 321 323 323 322 322 324 325 324 324 325 326 326 325 327 327 325 324 325 320 318 319 319 320 319 317 318 315 313 313 312 313 313 314 315 315 317 317 320 321 322 323 323 323 322 322 322 321 322 323 323 323
310 310 310 311 310 310 310 310 310 311 313 314 315 315 318 323 325 326 327 327 324 320 321 325 325 323 321 319 318 317 317 321 322 322 324 322 320 320 322 324 324 324 324 324 322 321 322 324 325 325 326 326 325 326 325 319 316 319 319 316 316 316 316 314 312 313 312 313 313 314 315 315 316 317 318 320 322 322 321 321 320 320 321 321 321 323 323 323
310 311 311 311 310 310 309 310 310 310 312 314 315 314 315 319 323 326 327 327 325 320 320 324 324 323 321 318 318 317 317 322 323 323 325 325 322 320 322 323 325 326 324 323 322 321 321 323 325 325 326 325 326 326 322 318 315 318 319 316 315 314 314 313 312 312 312 313 314 314 314 315 316 317 316 318 320 321 320 319 319 319 319 320 321 322 323 323
310 311 311 311 310 309 309 310 311 311 313 315 315 314 315 317 321 324 326 327 324 319 322 324 323 323 321 318 318 318 318 321 322 323 324 325 324 321 320 322 324 326 325 324 323 322 322 323 324 324 326 325 325 324 319 318 317 318 320 317 315 313 313 313 311 312 311 312 312 312 314 315 315 315 315 317 318 319 319 319 319 319 319 320 321 321 322 323
309 310 310 310 310 309 309 310 311 312 314 316 315 314 314 315 318 322 325 327 324 321 325 325 322 322 321 319 319 319 319 322 323 322 322 325 325 321 319 320 323 326 327 326 324 323 322 323 324 323 325 324 323 322 318 321 322 320 320 317 316 315 313 313 312 312 312 312 312 313 314 314 314 314 316 317 317 317 318 319 319 319 319 319 320 320 321 322
308 309 309 310 309 309 309 310 310 312 315 316 316 316 314 314 316 319 323 326 324 323 325 324 322 322 321 319 319 319 321 323 324 322 322 324 325 323 320 319 321 324 327 327 325 324 323 322 322 322 322 321 321 320 318 321 321 319 319 316 315 315 314 313 312 312 312 312 312 314 315 314 313 314 317 318 316 316 316 317 318 318 319 319 319 320 321 322
308 308 309 309 309 309 309 309 310 311 315 316 315 315 315 314 315 317 321 326 326 323 323 322 322 322 321 320 319 319 321 323 324 323 322 324 324 323 322 319 319 322 326 326 326 325 324 322 321 321 322 320 319 317 317 318 316 316 318 316 315 315 314 314 313 312 312 313 313 314 314 313 312 313 317 318 316 317 316 316 318 318 319 319 319 320 320 321
309 309 308 308 308 309 309 309 309 310 313 314 315 315 314 314 315 316 318 324 326 323 321 321 322 322 321 320 320 320 321 323 324 322 322 322 323 322 321 320 319 322 326 327 326 325 324 322 320 321 322 320 318 316 316 315 313 314 316 317 316 314 315 315 315 313 313 314 313 313 315 314 313 314 316 317 316 317 316 316 317 318 319 319 319 319 320 320
308 308 308 308 308 308 308 308 309 310 311 313 315 315 313 313 315 315 315 320 325 323 321 322 322 321 321 320 320 320 321 323 323 322 321 322 322 322 322 322 323 325 326 327 326 325 324 320 318 322 321 319 318 317 316 313 313 314 315 318 317 316 318 316 314 312 312 313 313 313 318 320 317 316 316 316 315 316 316 316 316 317 318 318 319 319 319 319
308 308 308 308 307 308 308 308 309 310 311 311 313 314 312 312 314 314 313 316 322 324 323 322 322 321 321 320 320 320 321 321 322 322 321 321 322 323 324 324 325 325 325 325 326 326 325 319 318 322 319 317 317 316 315 314 315 315 315 317 318 320 320 316 313 313 313 313 311 313 319 322 319 317 315 315 315 315 317 318 317 317 317 318 319 318 319 319
308 308 308 308 307 308 308 308 308 309 311 311 312 313 312 311 313 314 313 313 318 323 324 323 321 321 321 320 320 320 321 320 321 322 321 321 322 322 323 324 324 324 323 323 324 325 324 320 319 321 317 316 317 316 316 315 315 316 317 319 318 320 320 315 313 313 314 313 311 313 317 320 319 317 315 314 315 314 316 318 317 316 317 317 318 318 318 318
308 308 308 308 307 308 309 308 308 309 311 311 311 312 311 310 311 314 314 313 315 320 324 324 322 322 321 321 321 320 320 320 320 322 321 321 322 323 323 323 322 322 322 322 324 324 323 321 319 319 316 316 318 318 317 317 317 316 318 321 319 319 319 317 314 312 313 313 311 313 316 318 318 316 314 313 314 313 316 317 316 316 316 316 317 317 318 318
308 308 308 308 307 308 309 308 308 309 310 311 311 311 310 308 309 312 314 313 314 317 321 323 323 323 321 320 321 320 319 319 319 322 322 321 322 323 323 321 321 321 322 322 324 323 322 320 319 318 317 317 318 320 321 321 320 317 318 322 320 318 319 319 317 313 312 313 313 312 314 317 317 315 314 313 312 312 315 316 315 315 315 315 316 316 317 317
308 308 308 308 307 308 308 308 308 309 310 310 310 310 310 309 308 310 315 315 314 315 318 318 319 322 321 320 320 321 320 319 319 320 322 322 321 322 322 321 321 321 321 321 321 321 321 318 318 319 317 318 319 321 326 325 322 319 319 322 321 319 318 320 319 313 311 312 313 313 313 315 316 316 316 314 312 312 314 315 314 313 314 314 314 315 316 316
308 308 308 308 308 307 308 308 308 309 310 310 310 310 310 310 308 310 313 314 314 314 315 315 317 320 321 319 320 320 320 319 319 320 322 322 321 322 322 320 320 320 320 319 318 318 318 316 317 319 319 319 319 322 326 325 323 322 321 323 323 321 319 320 318 312 311 313 313 314 314 314 315 315 316 315 313 313 314 313 313 313 313 313 313 314 314 315
308 308 307 308 308 307 308 308 308 309 310 310 310 311 312 312 311 311 311 312 312 313 314 315 316 318 318 319 320 320 320 320 319 320 322 322 322 321 320 319 319 320 320 319 317 316 317 317 318 320 321 319 318 321 323 322 323 322 322 324 323 323 322 319 317 312 310 314 315 314 314 314 315 315 316 316 313 312 313 313 313 314 314 314 314 314 314 315
308 308 307 307 307 307 307 307 308 308 309 309 310 311 312 312 311 311 311 311 310 311 313 314 315 316 316 317 320 320 320 321 320 320 322 321 321 320 318 319 320 321 322 319 316 314 317 320 320 320 320 319 319 320 321 321 322 321 322 324 322 323 322 317 315 312 309 314 318 313 313 314 314 314 315 315 313 313 313 314 314 314 314 314 314 314 314 315
307 307 307 307 307 307 307 307 307 307 308 309 310 310 311 311 310 310 311 312 311 310 311 312 312 313 314 316 319 320 320 321 320 320 321 319 319 319 318 320 321 321 321 317 315 316 318 321 321 319 319 319 319 318 320 320 320 321 321 323 324 321 320 317 313 310 309 315 319 314 313 316 316 315 315 315 314 313 313 313 314 314 314 314 314 315 315 315
307 307 306 306 306 306 307 306 306 306 307 308 309 309 311 311 311 310 310 313 314 311 311 311 311 311 312 313 317 320 320 321 319 319 320 318 318 319 318 320 322 321 319 317 318 319 320 321 320 319 319 318 317 317 319 320 320 322 322 323 324 319 321 323 315 310 309 311 314 312 312 315 316 315 314 315 314 313 313 312 313 313 313 314 314 315 316 316
307 307 306 306 306 306 306 306 306 306 306 307 308 309 310 311 311 310 311 313 315 313 311 311 311 311 312 312 314 318 320 321 319 318 319 318 318 319 318 320 322 321 318 318 320 321 320 320 317 317 318 317 316 317 319 322 322 321 321 324 324 318 319 322 314 310 310 309 310 311 315 317 318 318 317 316 314 312 312 312 312 312 312 314 313 315 317 316
306 306 306 305 305 306 306 306 306 306 305 306 307 308 310 311 311 310 310 312 313 313 313 312 312 312 312 313 312 314 318 321 320 319 319 319 319 319 318 320 322 320 318 318 321 322 318 316 316 316 317 317 318 318 319 322 324 321 320 321 322 319 318 317 312 312 316 316 311 311 320 323 319 319 320 319 316 313 313 312 312 313 312 313 313 315 317 317
306 305 305 305 305 306 305 306 306 305 305 306 306 307 308 311 310 309 311 311 311 313 314 313 313 313 312 313 312 313 318 321 320 320 319 319 319 319 319 320 320 320 319 318 321 323 315 312 316 317 317 319 319 318 319 321 323 323 319 317 318 319 318 316 314 317 321 320 312 309 319 324 319 319 319 317 316 315 315 313 313 313 312 313 314 315 316 317
305 304 305 305 305 305 305 306 306 305 306 306 305 306 307 309 310 309 311 311 310 313 314 312 313 314 314 313 313 314 318 320 319 318 318 319 318 318 320 319 318 319 318 318 323 321 313 312 316 317 317 319 319 319 318 319 323 323 318 315 315 317 317 316 315 318 318 316 311 310 314 317 316 318 318 315 314 314 314 314 314 314 313 313 314 315 316 317
304 304 304 304 305 305 305 306 306 306 306 305 304 305 306 308 309 308 310 311 312 313 313 313 313 314 314 314 314 314 317 319 319 317 316 318 317 316 319 319 318 318 316 319 323 318 311 313 317 317 317 317 319 319 315 317 321 318 314 314 314 314 315 314 314 315 313 313 316 314 312 315 317 316 315 314 314 315 315 315 315 315 314 313 314 315 316 316
303 304 304 304 305 305 305 305 305 305 306 306 305 305 306 307 308 309 309 310 313 313 313 314 314 314 315 315 314 314 316 318 318 315 314 315 316 316 318 319 318 317 315 317 319 314 310 312 315 316 318 318 317 315 314 318 319 313 311 313 312 312 313 312 313 313 312 313 318 316 312 316 320 317 315 314 313 315 317 317 317 316 315 314 314 315 316 316
303 303 303 304 305 305 305 305 305 305 306 306 305 305 307 307 308 309 309 310 314 315 314 315 314 315 316 315 315 315 316 316 314 313 313 314 314 313 315 316 316 316 315 314 312 309 308 310 313 315 315 315 312 310 312 315 314 311 311 312 312 312 312 312 312 312 314 317 317 315 313 314 318 319 318 317 314 314 316 317 317 317 316 315 315 315 316 317
303 303 303 303 304 304 304 304 305 305 305 305 306 307 308 308 307 308 309 312 315 316 315 315 315 316 317 315 315 316 316 315 313 313 313 313 313 313 315 316 316 315 316 316 313 309 309 311 312 310 309 311 311 309 309 309 311 312 313 314 315 314 312 314 313 312 318 321 315 310 310 312 316 318 317 317 314 312 314 315 316 317 316 315 315 315 316 317
303 303 303 303 303 304 304 304 304 304 304 305 306 308 308 307 307 307 309 312 314 315 316 316 316 317 316 315 316 316 317 316 314 314 314 314 314 315 318 318 317 317 318 318 316 311 312 313 310 308 307 310 314 312 308 308 312 313 313 316 319 317 316 319 317 314 319 319 310 306 308 311 315 316 315 314 313 312 313 313 314 316 316 316 315 315 315 315
303 303 303 302 303 303 303 303 303 303 303 303 305 307 306 305 306 306 308 311 312 314 316 316 316 317 316 316 317 316 317 316 315 315 314 314 314 315 318 317 317 321 321 319 315 312 314 313 309 308 308 310 315 315 311 309 311 313 315 319 322 319 321 324 321 318 320 316 308 306 309 312 314 315 314 314 315 314 312 312 312 312 313 314 313 314 314 314
303 303 303 302 302 303 303 303 303 303 303 303 305 307 306 304 305 306 307 309 311 312 314 317 317 316 316 317 317 316 316 316 315 315 314 313 313 314 316 316 316 320 320 318 315 314 318 316 311 311 310 310 315 316 314 311 310 313 316 319 321 320 323 326 323 322 321 314 308 307 311 316 317 315 312 312 313 312 311 310 310 310 311 311 311 311 312 312
302 302 303 302 302 302 302 303 303 303 303 303 305 306 306 305 305 306 306 308 311 312 313 316 317 317 317 317 316 316 315 315 316 315 313 313 314 314 315 316 317 316 317 318 316 316 321 317 310 309 308 310 314 315 313 312 312 313 315 318 320 319 319 318 316 315 315 313 310 309 312 316 315 313 312 312 312 310 309 310 310 310 311 310 310 310 311 311
302 302 302 302 301 302 302 302 303 302 303 303 304 304 305 306 305 306 306 307 311 313 313 315 317 317 317 316 316 315 314 315 316 314 312 312 313 314 315 317 316 315 317 319 317 317 321 315 307 306 306 308 311 312 312 314 314 312 313 316 316 314 314 313 312 309 310 317 316 311 312 314 313 314 314 314 314 310 310 310 309 311 311 310 310 311 312 312
300 300 301 301 301 301 301 302 302 302 302 303 303 303 304 305 306 308 308 307 310 312 313 315 317 318 316 315 315 315 314 315 315 314 312 312 314 314 316 317 316 315 316 317 316 317 318 312 307 308 309 307 307 310 310 310 311 312 314 315 313 312 313 313 314 312 312 319 319 312 313 315 315 317 316 313 314 313 312 311 310 310 310 310 311 312 312 313
299 299 300 300 299 299 300 301 301 301 302 302 302 303 303 304 306 307 308 309 310 311 312 314 316 317 316 315 315 314 315 316 315 314 314 313 315 315 316 317 316 315 315 314 315 316 315 312 308 308 309 307 306 310 311 308 308 311 314 315 314 317 318 314 313 315 316 318 317 312 311 312 313 316 315 314 313 314 315 313 311 311 311 311 312 313 314 313
299 299 300 299 299 299 299 300 301 301 302 302 301 302 303 304 305 306 307 308 310 310 310 312 314 316 316 316 314 313 315 316 314 315 315 314 315 316 316 317 316 315 314 312 314 314 313 314 311 307 308 308 307 311 313 311 308 308 311 313 313 315 318 315 313 315 317 317 317 315 312 313 314 314 315 316 314 313 315 314 313 313 312 312 312 313 314 313
299 299 299 299 298 299 299 300 300 301 301 301 301 302 303 303 304 305 305 307 310 310 310 311 312 314 315 316 314 313 315 316 314 316 317 315 315 316 315 316 316 314 313 312 313 313 312 313 312 307 307 309 309 311 314 314 310 309 312 314 312 310 312 314 312 311 314 316 316 316 317 316 314 312 313 316 315 314 315 315 316 314 312 312 313 313 313 312
298 299 299 299 298 298 299 299 300 300 300 300 301 301 302 303 304 304 305 306 308 310 310 310 312 313 314 315 315 314 315 316 315 316 317 315 316 318 317 316 315 314 312 312 313 313 312 312 311 308 307 309 310 309 309 312 312 311 313 313 313 312 311 315 316 311 309 312 312 313 316 316 313 311 311 313 314 315 314 314 314 312 310 311 312 311 311 311
298 298 299 299 299 299 299 299 300 300 300 300 301 301 301 302 303 304 305 306 307 309 309 310 312 313 312 314 315 314 314 315 315 317 317 315 316 319 317 316 314 313 313 313 313 311 311 311 310 308 308 309 308 305 303 307 312 311 312 312 313 312 312 316 319 313 309 308 308 309 312 315 314 311 309 310 310 309 308 309 311 310 310 311 312 311 310 310
299 298 298 299 299 299 299 299 300 300 300 300 301 301 301 302 302 303 305 306 307 308 309 310 311 312 313 314 313 313 315 315 315 316 317 316 316 316 316 315 314 313 313 313 312 310 310 311 310 309 309 308 307 306 304 307 310 310 310 311 311 312 313 313 312 311 311 311 310 311 313 315 316 312 308 307 307 305 305 306 308 309 310 311 311 310 310 309
299 299 299 299 299 299 299 300 299 299 299 300 300 301 301 301 302 302 304 305 307 308 309 309 310 311 313 313 312 313 315 316 316 316 316 317 315 313 314 315 313 313 313 313 313 313 313 313 311 310 310 310 310 310 309 308 308 309 309 310 311 312 312 309 308 309 312 314 313 314 316 316 315 314 310 307 307 307 307 306 307 308 309 310 310 309 309 309
298 299 299 299 300 300 300 300 300 299 300 300 300 300 301 301 301 302 303 304 307 308 309 309 310 311 312 313 312 313 315 316 317 315 315 316 312 309 313 315 313 312 313 313 313 313 314 313 312 312 312 313 313 313 312 310 308 308 308 308 310 312 310 310 310 311 312 313 313 315 317 315 313 314 314 311 310 310 309 308 308 309 310 310 310 310 310 309
298 299 298 298 299 299 300 301 301 300 300 300 300 300 301 301 302 302 302 304 306 308 309 309 310 310 312 313 313 313 314 314 316 316 315 315 310 308 311 314 313 312 313 312 311 313 315 313 312 314 314 315 316 314 313 311 309 309 309 308 309 311 311 311 312 312 312 312 312 314 316 314 312 313 315 314 312 312 311 309 308 310 311 310 310 310 310 309
297 298 298 298 298 299 299 301 301 300 300 300 300 301 301 301 302 302 302 303 305 307 309 309 310 310 311 312 313 314 314 313 314 315 315 313 310 308 311 313 313 312 312 311 311 313 316 313 312 315 315 316 318 315 312 311 310 310 310 310 310 310 311 312 312 313 313 312 312 314 315 314 314 312 314 316 314 314 312 309 308 310 310 310 310 310 309 309
297 298 298 299 299 299 299 300 301 301 300 300 300 301 301 301 301 302 303 303 304 306 308 309 310 311 311 312 313 314 315 314 313 313 314 312 310 309 309 311 311 311 312 312 311 313 316 315 313 315 314 313 314 313 312 312 311 311 311 311 310 310 311 312 312 313 313 313 314 316 316 315 314 312 313 316 314 312 311 309 308 309 310 310 309 309 309 310
297 298 298 298 299 300 300 300 300 301 301 301 300 300 301 301 301 302 303 304 304 305 307 308 309 310 311 311 312 313 315 315 314 313 312 311 310 310 309 310 310 310 311 313 312 312 316 316 313 313 312 310 311 313 314 313 312 311 311 310 310 310 310 311 312 313 313 313 314 316 317 315 313 312 313 313 311 308 309 308 308 310 311 311 309 309 309 310
297 298 298 298 299 300 301 300 300 300 300 301 301 301 301 301 302 302 302 304 305 305 306 307 309 310 310 311 311 313 314 315 315 314 312 311 311 310 310 311 312 310 311 313 312 312 315 316 313 311 312 310 309 311 313 313 313 311 311 311 310 310 311 311 312 312 313 313 313 314 315 314 313 312 312 311 309 308 309 310 311 311 311 310 309 309 310 310
297 297 298 298 298 299 300 300 300 299 300 300 300 301 302 302 302 302 302 303 304 306 306 307 308 309 310 311 311 312 313 314 315 314 313 312 312 312 312 312 312 311 312 313 313 312 313 314 311 312 314 311 307 307 310 312 312 311 311 311 311 311 311 311 312 312 313 313 313 313 313 312 312 312 312 310 309 309 310 311 312 311 310 310 310 310 310 311
297 297 297 298 298 299 299 299 299 300 300 300 300 300 301 302 302 303 303 303 304 306 307 307 307 308 310 311 312 312 313 314 315 314 313 312 312 312 312 312 311 311 312 313 313 312 313 312 311 313 316 312 307 307 311 312 312 312 312 311 311 311 311 311 312 312 312 313 313 312 312 312 311 312 312 311 310 310 310 310 311 311 310 310 310 310 311 311
Wind_Speed
34 30 29 33 33 31 32 32 34 35 39 37 29 31 32 30 32 34 33 34 37 36 36 34 32 33 35 38 46 51 49 44 38 34 32 30 28 26 28 28 24 22 21 21 20 18 17 16 15 13 11 8 7 7 6 4 8 8 4 5 6 5 5 5 6 4 1 3 3 4 9 9 6 8 8 6 8 6 8 12 11 13 13 8 6 5 13 20
35 32 29 31 33 31 30 31 33 34 38 40 31 26 31 31 30 33 33 33 36 33 31 33 34 36 39 40 44 47 45 42 38 38 39 31 24 22 25 28 26 22 20 18 18 17 17 16 14 13 11 9 7 9 9 6 7 5 2 5 6 4 4 2 4 4 2 2 2 3 8 9 6 8 10 7 7 8 7 11 11 11 14 12 8 8 14 21
34 34 31 29 32 32 30 30 32 33 35 39 38 27 27 31 29 33 35 33 36 32 25 28 34 37 40 43 44 45 44 40 38 48 46 32 23 20 21 26 27 22 19 16 14 14 15 14 13 13 14 10 8 10 9 8 7 4 3 6 5 5 4 2 3 4 4 3 2 2 7 10 7 8 10 7 6 8 11 12 12 13 17 17 13 10 14 22
32 33 32 28 30 31 30 29 30 32 30 33 39 32 26 29 28 31 35 34 36 34 26 26 32 38 42 44 44 45 43 31 37 56 51 36 27 22 20 22 26 24 19 15 12 12 12 12 12 14 15 10 8 11 9 9 7 4 5 5 4 8 5 6 5 6 6 4 3 3 5 7 8 10 10 8 6 8 14 16 15 17 19 20 19 14 15 22
32 32 32 29 28 29 30 28 27 31 31 30 33 34 29 28 29 29 33 35 35 36 32 27 30 35 39 43 44 45 37 15 26 54 53 44 33 24 22 19 22 25 19 15 13 14 13 13 15 15 13 7 7 9 9 11 8 4 4 3 6 10 5 8 8 6 7 4 4 4 4 4 6 10 12 12 10 7 10 15 17 18 18 19 19 18 17 21
31 31 31 29 28 28 28 27 25 27 31 32 30 32 32 29 29 28 31 36 34 36 34 29 30 32 35 39 38 41 36 9 7 32 45 48 41 29 24 19 21 24 21 17 15 16 16 16 17 15 11 7 9 10 7 12 10 5 3 1 7 10 6 8 7 6 8 6 5 5 4 4 6 8 11 17 17 10 7 10 12 14 18 18 18 20 20 21
29 29 29 29 28 28 26 24 23 24 25 28 29 32 33 30 28 24 28 37 36 34 34 32 32 33 34 34 34 38 38 18 7 9 24 42 49 37 26 21 22 24 23 21 19 18 19 21 17 14 11 6 10 11 6 11 10 6 4 5 7 7 7 7 5 5 8 7 6 5 4 6 7 5 7 17 22 18 14 9 6 8 12 16 19 21 21 21
30 28 27 28 28 26 25 23 22 23 22 23 27 31 32 30 28 22 24 35 37 34 34 35 33 34 34 33 35 33 38 34 13 6 5 27 49 45 33 27 25 25 26 24 22 21 21 22 18 15 11 5 8 10 8 10 8 8 5 6 7 5 5 4 3 4 6 7 6 6 5 4 7 5 5 15 21 21 21 16 10 7 8 13 19 21 22 22
30 28 27 25 26 25 25 24 22 23 21 21 25 30 33 31 27 20 22 33 37 34 35 35 33 34 33 35 37 27 37 46 28 10 6 16 43 49 42 36 30 27 28 27 23 22 20 21 21 17 9 6 9 10 11 10 6 9 7 6 7 4 4 3 3 4 4 6 6 6 4 3 6 6 7 14 17 18 20 20 17 13 11 12 16 20 22 22
29 29 27 24 24 25 24 23 22 22 21 20 22 25 31 33 29 21 19 29 36 35 34 33 32 35 34 37 33 19 32 44 35 23 14 15 38 50 49 42 36 33 30 29 26 23 21 20 23 18 6 7 10 8 12 9 2 5 8 7 6 4 3 2 2 4 4 4 6 6 3 3 6 5 5 5 6 11 16 20 21 18 16 14 14 18 21 23
27 28 27 24 24 24 23 22 23 23 21 21 22 24 28 30 30 25 18 25 35 35 33 31 33 37 37 40 32 17 25 34 31 23 13 18 36 45 51 46 41 38 31 29 26 25 22 18 22 17 4 7 10 7 9 5 2 5 10 7 4 4 4 4 2 5 5 4 7 6 2 4 6 5 7 5 3 6 13 18 20 20 19 17 15 16 19 22
27 27 26 24 24 24 23 22 22 23 22 22 22 24 28 29 27 26 18 22 35 36 34 33 34 38 38 39 37 23 20 27 27 19 10 20 31 34 44 44 42 41 35 32 28 26 22 16 20 15 5 8 10 6 6 5 5 7 8 6 5 3 6 8 5 5 6 5 8 7 3 6 8 8 10 11 7 5 11 16 19 21 21 20 19 18 19 21
27 26 25 24 24 24 23 21 21 22 22 22 20 20 27 29 24 24 19 21 35 38 34 35 36 38 35 31 35 30 21 24 30 24 13 19 29 32 37 39 39 39 36 32 28 26 20 15 16 12 8 10 7 5 8 8 6 7 5 3 5 4 7 9 6 5 6 5 10 9 6 9 10 12 13 11 8 7 10 15 18 20 21 22 21 21 20 21
27 26 25 25 24 24 23 22 21 21 21 22 22 21 27 31 24 22 20 19 29 38 35 35 36 38 35 25 29 35 25 20 30 33 21 18 29 34 34 36 35 34 30 25 25 24 18 14 14 10 8 9 8 9 10 7 3 5 4 2 4 5 5 8 6 7 7 6 11 9 7 9 5 9 15 14 11 10 12 13 16 19 21 22 22 22 22 22
27 26 25 25 23 23 23 23 21 21 21 22 23 23 29 34 27 21 21 21 20 30 37 37 36 37 31 20 23 36 31 18 23 34 30 22 27 34 35 36 32 29 26 22 22 20 17 15 14 9 8 9 12 10 7 5 2 3 4 4 4 4 3 6 6 8 7 5 10 8 5 8 6 6 10 13 13 14 14 14 17 19 20 22 23 23 23 23
26 25 24 24 23 23 23 23 21 21 21 22 22 22 27 34 29 19 18 22 19 20 35 39 43 39 22 15 21 33 37 26 20 24 29 26 26 35 37 34 30 27 25 23 21 18 17 15 11 9 9 9 10 8 5 5 4 3 4 4 5 6 4 4 5 5 4 3 9 9 5 5 5 4 7 10 13 16 15 14 17 20 20 22 23 23 24 24
26 24 24 24 24 23 23 22 21 20 21 23 23 21 25 31 31 24 16 21 20 19 27 29 40 39 15 12 21 31 39 36 26 19 23 26 24 32 37 32 30 27 24 21 19 19 17 13 10 8 7 6 7 7 7 7 6 5 4 3 6 8 6 5 4 3 3 3 7 9 7 9 5 2 6 9 11 14 15 15 17 18 20 21 22 23 24 25
25 24 23 23 23 23 22 21 21 20 20 22 23 22 24 26 30 28 17 17 19 20 19 13 22 23 9 15 23 29 39 39 33 22 21 27 23 27 35 31 29 28 23 18 16 18 16 11 9 5 4 7 8 10 9 8 9 9 8 7 6 7 6 6 3 3 5 4 7 8 8 14 12 8 9 10 10 12 14 15 14 15 17 18 20 22 23 25
25 24 23 23 23 23 22 22 21 19 19 21 23 22 25 25 28 28 20 15 14 11 8 8 14 6 3 17 26 27 35 38 36 27 23 29 25 27 33 29 28 27 20 12 11 16 14 8 6 6 7 9 9 12 10 7 12 13 11 9 6 6 6 4 2 3 3 5 8 10 10 13 13 13 14 13 13 13 13 13 13 15 17 18 19 20 22 25
25 24 24 24 24 24 23 22 21 20 20 21 24 23 21 23 18 17 22 21 18 13 5 9 14 3 6 11 25 26 28 31 34 30 27 32 32 31 32 29 25 21 15 10 8 13 14 7 6 8 10 12 13 14 9 6 11 11 8 7 6 6 5 3 3 3 2 5 7 8 10 13 13 13 15 13 11 12 13 13 16 19 20 20 19 19 20 21
26 24 25 25 24 25 23 22 22 21 20 20 26 21 14 20 14 10 20 21 26 28 18 12 12 7 2 8 20 28 27 25 31 34 30 33 37 30 27 28 19 11 13 13 11 10 11 8 9 11 11 14 16 13 7 4 8 9 7 6 5 5 4 2 2 2 2 4 6 5 7 13 14 13 14 12 9 12 15 14 15 18 21 21 20 20 20 19
27 25 26 27 25 25 23 23 22 21 20 18 25 22 12 20 18 13 18 12 18 29 26 20 19 17 11 2 17 29 26 20 23 33 33 36 37 26 23 24 16 12 15 14 10 7 8 9 10 12 10 13 11 9 8 7 7 7 6 5 5 5 2 1 3 2 2 4 4 2 6 13 15 13 14 15 13 14 17 17 17 18 19 22 24 23 22 22
26 25 26 27 26 25 23 23 22 21 21 19 24 24 16 19 16 12 16 6 5 19 24 26 26 25 25 15 14 23 23 20 18 27 36 37 35 30 26 21 16 16 15 12 10 9 8 8 11 14 13 13 8 7 11 9 8 7 7 7 5 5 4 5 4 4 2 2 3 3 6 11 14 13 13 18 18 15 18 21 21 22 20 22 26 25 24 26
25 25 26 26 26 26 23 22 21 20 21 20 22 23 17 19 17 14 15 5 2 10 18 25 26 26 29 24 13 12 18 24 23 28 39 38 33 28 23 20 19 16 12 15 18 11 4 8 17 16 15 16 11 12 14 10 8 8 8 9 6 6 7 3 3 3 2 2 2 4 8 9 12 15 14 14 13 12 17 20 20 24 25 24 26 26 26 27
25 24 25 26 25 25 23 21 20 20 21 20 21 22 17 16 18 17 14 3 5 5 8 15 17 22 30 27 20 12 10 19 27 34 41 41 34 22 16 19 17 11 14 19 18 10 4 13 22 17 13 17 15 13 15 12 8 7 8 8 6 8 8 3 3 2 3 5 2 2 8 6 6 12 14 9 9 11 13 13 15 21 25 26 27 27 28 29
24 24 24 25 24 25 23 18 18 20 20 20 21 22 20 16 18 20 14 1 4 5 5 10 11 15 24 25 23 16 7 9 23 36 43 41 35 24 14 12 7 8 17 15 8 3 2 11 19 16 13 16 13 12 14 13 8 6 6 6 5 7 7 6 5 4 4 4 1 1 8 6 3 7 10 7 9 13 12 11 14 19 23 26 28 28 29 30
23 24 23 23 23 24 22 17 18 20 17 18 20 20 20 16 16 19 12 0 5 7 8 12 9 11 18 24 26 14 3 9 20 30 44 40 30 22 14 9 5 9 14 9 4 2 4 12 17 17 15 11 12 10 10 13 9 3 7 9 7 6 7 7 7 5 3 3 1 2 4 7 8 6 5 4 7 10 12 12 14 18 23 28 28 29 29 30
22 22 23 23 22 22 20 16 18 19 14 14 18 20 18 16 15 13 6 2 5 8 9 11 10 11 15 22 30 15 3 15 17 19 40 39 24 14 11 13 11 12 15 11 7 2 6 15 17 18 14 9 10 8 9 12 7 0 4 8 6 5 6 5 5 4 1 3 5 5 3 6 8 4 2 3 7 12 15 16 16 16 23 29 30 30 29 29
21 22 22 22 22 21 18 15 16 18 14 12 16 18 17 18 15 7 2 3 4 5 7 14 13 14 15 15 23 16 8 8 7 14 33 32 20 10 6 13 14 15 12 7 4 2 3 10 14 16 12 9 7 6 10 12 5 3 7 9 7 5 5 3 2 2 0 4 8 6 7 6 8 4 5 4 6 12 14 14 14 15 22 31 32 31 31 29
20 21 21 22 22 21 18 14 15 18 16 16 18 21 23 21 12 5 7 5 2 3 7 14 16 18 20 14 11 14 9 1 7 18 22 17 16 10 7 11 13 13 6 4 4 2 3 5 8 7 6 8 8 6 3 5 7 11 10 9 7 4 3 2 0 0 3 7 7 6 9 6 7 4 7 7 5 8 10 10 12 15 19 28 32 31 31 30
20 20 20 21 20 19 19 16 15 15 16 17 22 27 26 15 5 6 8 1 3 5 7 9 15 20 21 14 8 12 8 2 10 18 11 7 10 9 10 9 7 7 4 4 4 2 4 7 5 1 4 11 12 6 5 5 11 12 7 8 6 3 2 1 1 2 6 7 1 3 6 7 9 5 5 5 2 3 7 10 13 14 17 24 31 31 28 29
19 19 18 18 18 17 17 16 15 15 13 14 22 25 17 6 3 5 4 3 2 6 7 9 13 16 18 15 10 12 9 5 10 13 10 7 7 8 10 9 7 7 6 7 5 1 5 5 1 2 6 12 12 8 4 2 7 6 7 9 7 4 4 4 3 3 6 4 2 2 2 6 11 8 5 8 7 7 11 11 12 13 14 18 24 28 27 28
18 18 17 17 16 15 14 12 14 15 11 11 17 16 8 5 6 5 3 2 1 2 8 12 13 14 18 16 10 10 9 7 10 11 11 10 8 9 7 6 7 4 6 11 8 5 4 1 1 3 4 10 13 10 6 4 5 6 9 9 7 6 6 6 5 3 5 3 2 2 2 5 10 7 8 14 14 11 10 13 15 16 18 18 18 22 25 26
18 17 17 17 14 13 13 11 12 14 13 13 12 9 6 7 7 7 7 3 1 1 4 11 14 15 18 15 12 13 6 4 11 11 10 9 8 8 5 4 8 2 6 10 5 6 7 2 5 6 4 9 12 9 8 8 4 5 6 5 6 7 5 6 6 4 3 1 2 3 2 6 5 2 3 10 11 11 10 14 19 19 21 21 18 19 21 22
17 16 15 16 15 14 13 13 14 13 15 15 8 4 6 7 6 8 8 3 1 1 2 9 16 16 14 10 11 15 5 2 11 10 8 10 8 9 8 8 13 8 9 10 4 6 11 4 1 1 3 10 11 7 11 13 6 3 3 3 6 5 2 1 1 1 1 2 2 5 4 6 3 5 8 8 8 10 11 14 19 22 23 21 19 19 17 17
16 15 14 14 15 16 14 15 13 12 14 13 6 4 5 4 2 4 6 5 5 3 1 9 15 12 9 6 8 12 3 2 10 7 4 9 9 11 12 8 11 11 9 10 6 5 9 4 3 3 3 6 8 8 12 12 7 2 4 6 4 1 2 1 1 2 2 4 4 5 6 6 3 8 12 10 7 6 8 10 14 21 24 20 20 21 17 15
17 16 15 14 15 15 15 15 13 12 12 9 6 6 5 4 2 2 2 5 8 5 1 5 10 9 8 6 7 12 6 4 10 7 3 6 6 11 12 7 11 14 9 5 3 2 5 5 3 2 4 2 4 9 7 3 4 5 7 7 4 3 2 1 3 1 3 7 4 4 8 7 3 5 5 6 8 9 9 7 7 13 18 20 22 23 19 16
18 16 14 15 16 16 17 16 14 13 11 6 7 9 6 5 5 2 1 4 7 6 2 2 4 6 9 8 8 12 11 8 9 7 5 5 4 9 13 8 12 19 12 3 2 2 5 6 3 2 3 3 4 8 5 2 1 2 5 8 6 3 5 5 4 3 5 6 3 3 5 6 7 7 4 4 8 12 12 6 4 7 11 14 20 23 20 15
18 14 10 14 18 18 18 17 16 14 8 4 8 8 6 6 8 6 4 6 5 5 5 4 1 1 6 11 11 12 13 12 11 8 6 5 2 10 18 11 10 21 15 3 3 3 3 4 3 1 1 3 4 6 8 7 2 1 3 7 3 2 4 5 3 2 4 5 4 2 1 4 7 7 9 10 8 10 13 9 6 7 9 12 16 18 18 15
18 11 5 12 19 20 19 18 15 11 6 5 8 7 5 6 9 11 11 8 4 3 5 4 3 1 3 8 12 11 11 12 13 9 7 9 5 7 17 13 8 17 13 2 2 4 1 2 5 3 1 4 6 6 9 12 9 5 7 9 6 2 1 2 3 1 1 4 4 3 3 4 2 2 9 14 11 9 10 7 5 6 10 13 13 14 16 16
17 8 3 12 20 24 24 17 11 8 6 7 8 8 8 7 6 8 14 12 6 4 4 3 5 3 1 4 8 9 9 11 13 10 6 10 9 4 14 19 12 14 11 3 4 5 1 3 7 7 5 6 4 1 1 5 9 9 8 9 10 6 3 4 6 3 1 2 2 2 4 4 0 2 6 9 8 5 3 2 2 4 8 10 10 11 12 13
15 5 6 16 24 31 28 13 7 9 6 8 10 10 10 8 6 7 10 11 9 5 4 3 4 6 3 2 3 5 10 9 12 11 6 11 14 9 19 30 23 19 15 6 3 2 2 4 7 6 5 3 1 2 3 3 2 4 4 6 8 7 6 7 6 3 3 1 1 0 4 3 1 2 4 4 2 3 1 1 2 4 6 7 9 11 10 10
14 6 10 20 29 38 28 8 7 10 6 7 10 11 11 7 5 6 7 9 7 3 1 2 3 6 5 3 1 3 7 7 10 14 9 12 15 8 18 36 31 21 15 6 4 4 3 5 6 6 3 2 2 2 1 3 0 4 6 6 8 7 5 2 1 2 3 5 3 1 5 4 1 2 2 4 3 3 3 2 2 5 7 8 10 11 9 8
13 11 15 24 34 38 23 5 8 11 8 8 8 10 11 8 7 7 7 8 6 3 3 3 3 6 5 7 6 4 6 4 7 13 9 9 10 3 15 35 31 18 14 11 11 10 5 4 6 7 5 3 3 3 3 3 5 7 6 5 7 6 4 3 1 1 3 6 8 6 8 5 0 1 1 2 3 4 4 4 5 6 8 10 11 10 8 7
11 10 14 28 40 36 16 6 11 11 9 11 10 11 12 9 10 13 11 10 10 7 4 4 6 7 5 7 10 8 8 4 3 9 6 4 4 3 15 32 28 20 17 16 16 12 5 5 7 9 10 10 9 8 7 7 6 4 4 7 8 9 9 5 2 3 6 6 8 9 10 3 3 3 1 0 0 2 3 5 8 10 10 11 11 10 9 8
10 6 7 15 27 26 13 9 13 11 10 13 9 10 12 9 9 14 16 13 12 11 7 6 8 7 6 8 10 10 11 5 0 4 5 4 1 1 17 31 29 24 19 17 22 14 3 3 7 9 11 9 6 4 6 10 10 6 7 10 8 7 9 7 3 7 8 3 5 13 14 4 1 3 3 1 2 2 2 4 8 12 13 12 12 13 11 9
8 6 6 7 10 12 8 7 10 8 11 15 9 7 14 14 8 10 14 13 12 14 10 7 8 7 7 11 9 8 13 8 2 4 5 4 1 1 14 24 25 24 17 17 25 15 3 5 11 11 9 2 2 5 10 13 13 12 11 13 11 10 11 11 11 12 6 4 9 19 17 11 7 6 5 4 3 3 2 3 8 13 13 12 12 12 11 10
9 7 13 15 7 4 6 7 9 11 14 16 10 8 14 18 13 9 11 13 14 15 11 8 11 11 8 10 9 7 12 10 5 5 4 4 3 3 7 10 12 16 13 12 18 12 3 9 12 9 5 1 2 9 14 13 13 14 15 16 16 15 16 17 19 16 12 11 16 12 11 15 15 11 10 7 4 4 2 5 11 11 9 11 13 12 11 11
11 6 13 19 10 5 12 14 12 14 16 14 10 10 14 17 16 13 10 9 11 15 14 10 12 14 12 11 11 8 10 11 7 6 6 6 6 5 6 5 6 10 9 7 10 8 5 7 10 10 6 1 1 6 11 13 13 13 17 18 18 18 19 20 23 21 17 17 19 6 7 13 14 13 12 8 5 5 7 10 14 11 8 12 14 13 13 14
13 9 11 14 10 9 14 15 11 11 13 13 10 11 13 15 17 16 12 10 9 11 16 17 15 15 15 14 13 12 11 12 12 12 12 11 9 8 8 8 9 12 12 9 7 7 9 7 10 12 6 1 1 2 4 8 13 15 15 16 18 21 22 23 23 18 15 17 21 12 8 12 8 9 9 10 10 10 12 18 24 21 14 14 17 17 17 18
20 19 15 10 7 9 11 10 9 9 10 11 11 12 13 15 18 15 12 17 18 12 15 22 20 15 15 17 17 15 14 15 17 18 19 18 16 15 11 9 14 15 12 12 10 8 9 6 8 10 8 4 1 1 3 4 6 9 12 17 23 22 18 17 16 13 15 20 22 17 13 11 6 9 6 10 14 14 15 21 27 26 20 18 21 22 21 21
24 21 19 12 8 10 11 9 9 11 9 9 13 15 15 17 20 16 12 16 23 22 19 23 22 16 13 16 20 22 24 24 24 23 26 23 17 14 9 12 22 22 15 13 10 8 8 6 6 10 10 4 1 4 8 8 5 6 14 21 23 16 9 9 11 16 20 20 17 14 12 6 8 10 8 8 9 11 16 23 29 32 29 26 27 28 26 25
Wind_Direction
232 228 228 230 230 230 233 233 227 226 227 228 221 207 207 215 218 216 216 218 222 225 219 206 197 196 197 196 196 197 196 194 193 196 197 192 191 195 199 198 195 194 199 204 206 209 209 211 215 212 210 208 217 215 199 180 165 168 192 212 209 200 184 174 175 173 100 71 93 172 193 195 174 178 188 192 195 200 200 201 211 208 212 212 192 192 189 188
233 229 226 227 229 230 232 236 230 227 229 230 229 213 202 208 216 215 214 213 217 221 216 205 195 193 195 192 192 191 192 194 196 205 202 187 183 191 196 198 195 191 195 201 205 210 209 209 209 204 198 193 202 200 203 203 187 196 201 209 218 184 152 146 150 157 156 95 100 174 200 208 188 170 184 198 193 190 202 206 212 212 212 212 198 194 191 187
232 230 227 225 227 229 231 234 232 228 229 230 232 225 202 201 210 215 213 210 214 218 214 205 197 195 196 194 192 191 194 198 206 212 205 188 178 181 188 196 198 193 193 199 204 211 213 215 210 197 188 190 194 184 192 203 204 219 204 220 211 136 123 159 157 159 174 146 134 167 192 210 205 173 184 204 194 194 216 210 203 211 213 210 203 194 190 188
230 230 229 226 224 227 231 233 233 230 229 230 231 228 210 198 200 209 214 212 211 212 211 208 201 197 199 198 197 197 197 204 219 216 207 196 185 178 181 191 200 198 191 193 199 208 207 206 201 188 185 187 178 180 197 200 199 197 209 239 157 136 149 171 169 159 165 159 161 157 173 208 211 193 191 195 199 215 227 220 211 216 214 211 206 199 192 191
226 227 227 226 224 225 231 232 233 233 231 233 231 229 222 206 198 202 212 214 210 209 208 209 205 198 199 199 201 199 192 200 232 221 212 202 191 182 182 184 197 198 188 187 192 196 193 189 183 178 184 181 158 181 207 197 198 196 219 296 135 157 171 159 163 166 170 170 175 173 174 196 194 201 203 199 214 229 226 226 227 229 226 222 214 209 199 195
220 222 222 223 224 224 228 232 231 231 233 235 234 230 226 215 205 202 208 212 209 208 206 205 205 201 198 197 199 194 187 183 238 222 219 207 198 189 184 185 196 195 184 185 188 186 183 179 177 176 180 175 175 189 192 185 201 222 216 259 156 163 153 152 170 180 177 177 182 187 192 180 178 208 214 213 227 239 235 233 235 237 236 233 223 217 211 204
216 217 218 219 223 223 223 227 226 225 229 232 233 233 230 222 213 205 205 208 207 205 203 203 203 202 198 195 195 190 194 200 106 176 216 209 204 194 184 189 198 196 186 184 189 187 179 178 179 178 173 168 190 194 172 173 199 240 212 182 180 161 138 146 176 198 185 183 183 189 196 184 196 221 216 225 234 238 240 238 230 234 234 230 225 223 222 219
217 216 216 216 219 221 219 220 218 219 222 223 228 231 230 225 219 209 200 206 205 200 201 201 201 200 198 193 188 190 204 205 168 105 202 206 205 197 188 195 201 198 191 185 189 193 181 178 182 178 179 180 186 182 165 170 199 237 217 172 190 174 144 144 177 208 194 189 187 190 204 199 212 221 229 242 243 240 240 236 229 228 223 224 224 225 226 225
220 219 218 216 216 217 217 216 213 214 213 214 222 227 231 229 225 214 199 204 202 198 199 197 198 198 196 192 185 194 213 206 196 216 275 209 201 197 194 198 203 200 196 190 189 196 187 180 182 180 189 184 173 170 169 180 207 220 199 165 196 199 166 166 176 188 182 190 195 197 210 208 210 224 248 253 253 250 244 236 230 227 225 226 226 227 226 226
220 222 219 215 214 216 216 215 212 211 206 206 212 219 226 227 228 223 202 203 200 195 197 197 197 196 193 190 187 204 218 209 205 219 257 219 193 195 198 200 204 205 202 193 188 195 193 188 186 182 182 168 168 162 170 189 232 186 170 157 194 206 182 169 167 194 198 197 203 203 196 171 187 206 238 251 267 254 240 233 229 225 228 228 227 228 228 229
217 219 219 212 211 214 215 213 210 210 206 204 210 217 223 223 226 226 208 201 201 196 196 199 199 196 194 193 194 208 214 212 211 212 236 203 187 193 198 201 207 209 204 194 189 192 196 198 188 181 180 170 163 149 168 194 36 137 155 152 188 217 220 222 225 214 207 201 198 196 165 150 169 197 232 248 294 252 229 232 230 225 227 228 229 229 229 230
213 214 216 212 210 212 213 212 208 210 207 201 203 210 219 221 221 224 215 200 201 200 199 198 200 199 195 197 204 207 207 211 202 196 205 188 185 193 199 204 210 212 205 193 189 189 196 199 186 185 183 163 153 145 175 163 106 135 160 174 180 205 234 220 225 209 200 209 180 170 217 207 193 206 230 239 245 228 222 231 231 228 228 227 228 226 228 230
211 210 211 210 209 209 211 209 206 209 209 205 197 193 208 215 218 222 220 203 194 195 201 196 198 200 193 198 208 201 200 207 195 191 193 182 184 190 197 200 202 203 197 190 188 186 191 192 188 188 160 156 149 140 153 135 121 139 159 212 173 193 229 202 197 193 199 212 170 165 245 232 205 207 217 219 210 203 214 227 232 232 230 227 227 227 228 229
208 207 207 207 207 207 208 207 205 205 206 208 202 199 210 213 218 219 219 217 190 184 196 197 195 198 194 202 211 201 195 197 196 198 197 186 184 185 187 187 186 188 187 187 187 183 184 189 193 182 149 154 140 128 136 126 139 149 148 222 179 201 202 166 167 177 192 197 171 179 245 241 207 186 206 216 210 207 209 220 231 235 235 231 228 228 229 231
205 204 203 204 204 204 205 205 203 202 205 208 200 197 207 209 215 223 223 230 206 181 188 196 197 193 190 203 212 203 199 192 197 203 204 199 190 187 184 182 182 184 187 189 187 182 182 189 195 171 136 146 142 137 142 140 156 159 179 187 184 216 174 147 168 183 209 188 172 200 242 242 235 169 195 222 221 217 213 216 227 233 237 236 233 231 231 233
202 200 200 200 198 200 203 202 200 198 200 207 204 195 200 205 210 226 232 228 227 194 180 183 191 188 182 198 204 202 204 204 198 199 206 206 196 192 186 182 185 188 190 190 187 186 184 186 186 162 138 148 160 155 147 158 172 194 223 186 175 209 188 160 164 176 235 179 181 217 254 250 242 189 196 213 216 219 218 218 225 231 235 238 237 235 234 234
196 193 195 195 193 196 198 199 197 195 193 198 204 198 200 207 209 221 233 220 227 213 183 174 182 186 185 185 189 196 202 207 202 190 197 202 201 195 187 182 186 190 189 189 189 188 187 178 168 164 154 169 183 170 167 187 183 172 217 208 190 207 204 182 152 135 190 208 207 215 244 253 250 206 205 204 207 217 222 223 226 233 238 240 242 241 240 238
192 188 188 188 190 192 193 196 193 192 190 189 196 196 196 201 204 214 225 212 216 214 201 184 178 184 198 187 185 192 197 202 203 196 190 192 199 196 186 182 184 184 179 178 183 183 180 170 169 175 173 188 188 184 194 192 172 173 191 201 198 208 219 209 172 133 169 210 223 204 226 247 248 245 238 229 219 221 230 233 229 233 240 244 245 244 244 244
189 186 183 180 187 190 191 192 190 190 184 182 188 186 182 181 190 207 223 218 206 204 207 204 194 195 325 197 190 191 194 198 199 198 193 187 189 192 187 182 179 173 165 161 176 178 166 151 177 193 185 191 188 196 208 177 172 184 189 198 201 197 215 221 155 112 184 214 221 220 230 244 248 247 246 241 232 231 241 249 243 237 242 248 248 246 246 247
186 186 181 178 186 188 190 190 188 190 185 183 182 172 164 162 170 201 217 226 223 218 201 176 198 243 28 176 183 183 186 193 196 195 195 187 182 182 179 175 169 168 169 159 163 174 167 163 197 201 191 184 184 198 210 175 181 188 183 197 209 202 205 197 158 126 200 237 227 229 244 249 249 248 247 242 233 234 235 240 244 241 243 247 248 247 246 248
183 183 179 178 185 188 190 189 187 187 183 185 183 176 162 159 163 184 193 216 230 229 225 200 209 225 86 129 170 179 174 178 191 195 195 185 178 173 166 167 165 173 182 152 129 150 170 197 207 197 186 177 184 195 191 165 182 184 180 191 204 218 221 164 166 146 152 242 236 220 251 256 249 247 249 241 227 234 235 230 232 239 243 244 245 247 249 252
182 181 179 178 182 187 189 187 188 186 179 181 184 187 178 168 178 188 181 200 227 228 232 226 231 237 242 185 161 176 173 164 181 192 190 179 176 172 165 170 173 177 173 144 121 143 185 217 195 177 169 165 175 184 177 174 179 183 183 195 203 200 223 211 182 160 167 230 243 224 256 261 256 251 248 246 241 239 242 240 237 238 241 244 250 253 255 257
182 180 182 179 178 184 188 187 189 187 182 182 185 188 181 172 173 168 173 176 213 219 227 228 233 240 245 243 175 170 174 168 169 185 187 178 176 178 171 174 179 173 164 156 158 167 198 211 171 160 161 161 161 174 184 188 189 193 182 193 205 166 193 227 178 156 181 243 285 297 274 268 266 258 248 246 245 246 250 252 250 247 244 247 252 256 256 255
183 180 181 178 176 181 185 185 185 187 189 187 188 189 180 174 173 156 158 165 282 209 216 224 230 237 239 240 222 186 181 183 179 182 186 180 176 179 175 174 174 168 165 176 179 177 172 145 149 156 162 164 169 180 191 197 196 201 196 201 196 166 200 239 103 137 195 221 252 288 280 266 252 248 247 237 227 238 248 250 251 249 249 250 251 253 251 250
181 177 175 173 173 180 183 184 183 184 188 188 190 191 183 171 168 165 157 171 278 194 201 216 218 233 233 235 242 235 203 191 188 187 186 182 178 174 174 177 173 166 171 179 184 189 150 135 150 162 168 172 178 188 196 198 197 202 211 216 189 170 194 193 114 151 242 230 182 260 270 259 227 237 248 236 210 223 231 231 241 245 246 247 246 248 248 249
175 170 170 170 172 177 180 181 184 184 185 189 193 189 188 171 148 155 152 102 264 175 163 185 191 224 221 225 233 229 240 199 187 190 187 184 183 173 168 176 171 168 169 171 183 197 143 152 159 165 173 177 184 195 194 193 202 206 189 189 185 182 184 173 170 198 251 258 98 205 253 265 263 244 248 236 223 228 221 216 230 236 239 240 242 245 245 247
170 167 169 171 173 176 177 177 180 183 183 190 193 186 189 182 151 151 145 61 235 156 145 168 179 201 199 213 214 208 251 159 163 186 185 183 185 177 171 169 157 168 159 148 181 183 159 173 170 168 171 179 193 198 187 190 206 201 150 155 172 184 175 171 185 210 263 316 285 198 240 277 275 257 246 223 229 240 233 228 226 228 234 237 238 242 243 245
165 167 172 172 174 178 179 177 176 178 183 193 190 183 187 183 164 155 150 235 178 132 142 163 175 185 183 202 203 202 232 157 150 182 182 179 182 176 177 179 164 156 157 162 188 172 159 179 176 167 168 183 197 178 154 182 208 300 119 141 150 147 148 160 183 209 331 323 251 196 155 267 265 235 186 203 232 243 240 236 231 225 232 236 236 239 242 245
164 168 173 171 173 178 178 176 173 171 166 166 174 176 175 168 159 154 205 220 131 106 154 160 166 173 158 172 190 201 221 173 142 169 174 174 175 168 176 183 160 142 155 173 168 102 154 189 177 162 172 189 180 135 153 184 201 127 119 107 102 96 100 116 179 208 290 267 253 193 160 250 275 240 197 201 231 238 238 238 236 227 230 237 239 238 241 244
162 168 174 174 173 175 174 164 163 170 160 147 156 162 160 159 156 168 202 202 106 112 158 158 159 155 147 149 178 194 202 145 113 148 162 166 161 152 136 151 143 133 130 46 74 87 79 174 181 163 179 164 123 82 119 161 136 131 129 114 108 91 80 81 49 15 266 256 245 178 169 224 281 246 200 209 223 228 231 234 236 230 228 236 237 235 237 241
164 169 175 177 176 176 175 160 148 159 162 156 159 157 154 157 167 193 194 178 54 149 155 158 157 149 151 155 168 188 188 116 135 146 150 152 148 141 130 129 114 112 112 61 61 18 90 148 192 169 142 133 120 98 51 102 143 139 135 139 131 116 137 194 163 161 242 245 213 142 167 205 242 229 191 235 273 231 234 232 234 233 227 232 234 230 230 235
167 170 171 175 179 180 180 173 162 156 153 162 166 158 150 155 199 203 180 71 62 178 158 154 162 154 154 159 167 180 170 139 159 158 153 159 160 160 162 168 151 132 164 165 149 156 136 154 214 77 151 153 140 129 81 124 171 153 148 156 155 159 169 205 201 197 242 234 96 73 144 209 244 250 249 267 266 242 240 237 239 243 239 238 235 230 227 228
168 168 169 172 177 179 180 179 178 177 166 159 163 157 149 178 191 205 198 127 76 187 155 156 165 156 154 162 171 172 163 158 171 167 160 162 171 185 192 185 167 143 163 165 153 145 133 358 283 125 170 187 172 159 154 177 192 171 161 165 170 162 169 200 198 216 253 232 110 114 143 245 266 269 242 247 250 243 237 236 242 248 249 251 244 235 231 228
170 171 170 168 170 174 177 167 161 172 172 160 159 160 173 186 185 195 208 223 32 79 158 160 159 160 165 173 171 160 156 170 168 163 160 159 171 191 200 200 202 179 113 147 156 159 158 175 198 175 167 187 186 173 142 126 153 185 163 173 188 174 187 203 194 212 221 101 108 147 178 239 252 353 250 252 268 274 262 248 249 252 253 257 256 245 236 231
172 175 169 166 170 171 175 170 153 150 155 157 164 184 182 182 185 191 200 227 178 121 253 176 157 162 175 176 169 165 155 174 170 161 156 165 176 185 179 193 204 185 136 154 169 175 176 170 208 187 146 169 175 157 133 133 158 205 141 190 214 194 175 181 209 240 115 76 175 185 241 252 254 318 290 264 266 267 258 249 248 250 253 258 261 256 245 235
170 174 174 173 176 176 178 180 168 153 149 152 171 217 208 200 194 186 178 194 195 159 224 183 162 161 172 161 170 177 171 112 161 157 162 174 183 189 187 192 195 188 170 160 150 175 180 151 19 18 91 163 168 149 149 154 158 153 168 195 212 60 59 134 203 56 78 253 219 184 245 267 289 285 263 240 236 244 239 234 237 245 249 252 257 256 251 249
173 175 181 184 183 180 179 183 181 164 149 150 183 203 218 239 235 210 176 197 197 165 125 190 168 160 161 151 168 176 168 137 156 160 161 169 189 196 193 192 191 198 202 167 149 190 154 105 32 62 110 111 129 131 140 158 135 147 185 178 131 37 4 240 236 137 182 242 237 191 237 260 263 258 240 211 225 235 229 215 218 241 247 249 254 257 259 264
177 176 185 192 191 186 179 181 180 162 146 155 206 210 218 228 220 220 290 247 204 171 148 230 186 164 164 163 165 169 168 160 161 165 159 164 202 192 186 191 195 200 205 173 156 168 129 109 39 19 128 123 127 138 144 277 254 182 178 155 141 206 209 194 216 202 195 227 252 217 244 260 234 227 228 199 213 229 229 206 191 228 237 242 249 254 258 263
174 173 191 198 191 186 181 182 176 159 148 176 209 214 219 228 230 230 258 278 244 193 191 199 188 263 186 170 156 162 174 171 162 164 173 182 191 182 187 193 193 197 200 179 168 164 120 128 115 30 83 137 157 177 181 190 204 350 173 164 167 261 212 190 195 208 204 214 242 249 243 249 226 214 224 220 209 218 223 217 207 213 220 228 236 243 247 249
173 168 194 196 186 182 177 174 167 157 163 205 212 217 214 228 243 239 243 261 275 229 220 192 128 354 249 174 156 161 173 168 165 172 182 180 167 178 193 195 184 190 191 143 155 161 110 155 136 101 350 177 179 198 196 184 171 170 186 182 185 193 197 222 205 177 244 215 222 246 243 248 246 182 216 224 221 209 212 222 221 222 231 230 231 237 237 235
172 166 183 179 177 176 168 160 162 171 193 212 217 229 229 237 261 247 239 241 254 278 276 235 165 160 280 188 169 163 161 162 169 177 177 178 179 187 196 196 184 172 171 145 172 174 153 156 137 136 173 183 179 307 300 198 179 178 189 189 188 181 157 198 201 171 308 255 216 248 264 272 250 177 216 228 234 224 201 207 206 223 233 228 227 229 221 215
169 171 175 166 170 172 164 156 176 186 202 212 211 217 218 230 253 242 230 228 235 263 305 304 194 165 146 214 220 170 160 161 171 177 181 190 198 201 188 187 181 172 176 171 155 157 73 105 122 133 160 156 17 358 344 303 200 171 215 201 182 184 187 205 215 168 142 221 71 31 278 285 94 176 240 249 293 358 6 191 211 240 237 229 226 218 208 207
171 159 161 168 172 170 164 163 190 187 214 220 212 219 215 226 249 230 218 215 217 223 237 292 240 196 170 156 226 202 172 168 179 183 182 190 204 207 178 179 175 172 182 161 129 165 128 112 115 105 101 72 49 95 73 357 22 195 230 208 178 193 196 187 242 133 170 204 187 218 260 251 125 108 259 269 274 284 271 247 259 265 254 242 227 215 214 217
172 152 160 176 178 172 167 172 180 190 219 208 212 231 225 237 247 225 217 212 209 205 194 213 243 238 208 148 147 199 202 197 200 196 189 185 195 168 170 179 174 169 188 182 171 182 171 145 140 128 135 148 140 166 186 211 211 209 205 175 178 183 127 86 98 150 234 212 188 219 250 244 70 80 190 257 251 245 250 250 256 261 256 244 231 222 226 227
161 152 169 181 180 177 181 192 176 189 206 194 208 224 217 232 231 219 224 223 216 212 206 223 223 235 237 165 153 180 208 227 216 205 204 180 175 121 170 183 178 175 193 187 168 165 158 169 164 147 159 178 183 192 192 178 182 192 153 153 176 176 160 166 188 205 236 206 172 216 240 239 20 330 281 119 286 279 258 249 254 256 253 245 230 220 225 225
163 168 177 183 185 189 205 211 190 190 189 189 208 218 213 229 224 212 219 227 227 216 215 246 225 222 242 199 167 171 197 213 357 207 196 157 162 147 173 182 185 185 190 173 157 150 108 168 188 188 186 185 182 163 112 120 142 162 158 154 160 171 171 170 186 221 225 158 173 228 234 232 288 265 271 242 169 227 237 234 251 249 245 239 222 216 223 217
174 181 172 179 195 200 214 216 204 198 182 184 192 192 204 220 228 209 207 215 227 218 218 239 216 207 226 208 188 173 183 193 214 204 185 146 44 11 170 181 188 186 180 164 159 153 95 182 197 207 203 191 54 123 119 129 154 163 156 156 160 165 171 180 209 220 180 120 239 237 227 229 228 215 243 258 213 207 197 207 240 247 244 236 225 223 225 206
190 186 180 184 186 192 205 200 198 202 190 185 188 182 196 210 216 206 198 205 216 213 214 231 217 213 213 204 210 191 172 186 209 190 175 144 95 78 151 178 197 186 171 170 173 163 146 191 194 193 190 358 90 148 145 152 167 167 165 170 171 171 178 194 214 213 171 188 240 233 193 214 222 206 218 239 224 229 248 219 227 234 232 230 234 231 216 197
188 178 180 188 192 197 201 195 190 199 197 191 192 194 198 207 209 208 207 204 209 209 211 221 218 214 213 213 223 215 177 179 195 191 180 163 147 136 139 152 216 206 188 191 193 180 173 186 179 171 168 47 101 166 163 160 163 171 178 177 173 178 189 200 215 211 190 212 241 224 166 219 220 202 213 223 223 259 288 276 263 263 244 230 235 228 206 197
186 180 174 186 203 209 201 198 196 204 207 202 204 207 208 211 209 210 213 206 202 202 205 218 224 211 207 212 219 229 212 185 188 195 183 166 160 166 169 167 180 191 195 200 197 192 197 180 154 161 168 66 9 230 183 167 168 175 182 181 180 188 198 206 217 211 197 229 245 238 247 256 222 177 205 232 248 268 278 276 278 280 263 236 232 223 208 203
196 195 186 178 200 212 205 202 197 206 215 210 211 214 214 218 216 213 215 216 217 206 192 207 220 212 205 209 210 226 231 209 203 199 186 184 184 178 179 177 165 168 186 197 190 190 201 179 140 162 184 192 203 159 126 125 148 171 191 196 193 196 201 207 214 202 199 225 233 230 248 255 180 138 175 226 241 254 256 258 267 268 253 235 231 225 217 216
204 201 196 191 202 206 206 211 206 209 215 205 211 216 215 219 217 211 214 219 223 226 210 203 210 210 206 204 205 217 224 223 223 210 195 198 199 186 184 175 171 174 179 183 190 188 178 164 154 177 187 180 141 148 132 105 98 208 218 203 194 196 203 213 218 210 210 221 221 219 231 216 135 140 174 202 217 234 241 242 247 250 243 237 237 236 233 233